Location: Arborea
(39.7744°N, 8.5819°E)
Time: 20:55:10
(UTC+00:00)

Cosmos 2322 - Visible Passes

Search period start: 02 December 2023 00:00
Search period end: 12 December 2023 00:00
Orbit: 842 x 852 km, 71.0° (Epoch: 02 December)

Date Brightness Start Highest point End Pass type
(mag) Time Alt. Az. Time Alt. Az. Time Alt. Az.
02 Dec 5.0 04:17:25 10° S 04:22:39 40° ESE 04:27:54 10° NE visible
03 Dec 5.0 04:04:02 10° S 04:09:15 39° ESE 04:14:28 10° NE visible
03 Dec 4.5 05:48:32 10° WSW 05:53:27 30° WNW 05:58:24 10° N visible
04 Dec 5.0 03:50:39 10° S 03:55:49 38° ESE 04:01:02 10° NE visible
04 Dec 4.4 05:35:04 10° WSW 05:40:02 30° WNW 05:45:00 10° N visible
05 Dec 5.0 03:37:15 10° S 03:42:25 37° ESE 03:47:36 10° NE visible
05 Dec 4.4 05:21:37 10° WSW 05:26:36 31° WNW 05:31:36 10° N visible
06 Dec 5.0 03:26:38 25° SSE 03:29:00 36° ESE 03:34:08 10° NE visible
06 Dec 4.4 05:08:50 13° WSW 05:13:10 32° WNW 05:18:13 10° N visible
07 Dec 5.1 03:16:20 34° E 03:16:20 34° E 03:20:42 10° NE visible
07 Dec 4.3 04:58:25 29° W 04:59:44 32° WNW 05:04:48 10° N visible
08 Dec 5.7 03:04:55 22° ENE 03:04:55 22° ENE 03:07:16 10° NE visible
08 Dec 4.4 04:46:56 32° NW 04:46:56 32° NW 04:51:24 10° N visible
09 Dec 6.2 02:52:59 14° NE 02:52:59 14° NE 02:53:49 10° NE visible
09 Dec 4.9 04:34:58 26° NNW 04:34:58 26° NNW 04:38:01 10° N visible
10 Dec 5.3 04:22:43 19° N 04:22:43 19° N 04:24:37 10° N visible
11 Dec 5.7 04:10:16 14° N 04:10:16 14° N 04:11:12 10° N visible
